sexta-feira, 25 de janeiro de 2019

Day Trade: Aumento de Performance

Algo que sempre digo é: "o dinheiro grande na bolsa de valores está no longo prazo". Quando você pega um ciclo de alta como este atual, lá no comecinho, sua carteira cresce loucamente. Neste mês por exemplo, 7 ativos da minha carteira de ações estão com valorização acima de 20% (confira aqui). Estatisticamente, os ciclos da bolsa duram em média 7 anos, como já estamos 3 anos em bull market, então podemos considerar que teremos mais uns 4 pela frente.

Mas investimento de longo prazo é um negócio chato, enfadonho e tedioso. Você escolhe algumas boas empresas, de alguns bons setores, e faz aportes ao longo dos anos. Simples assim. Não há emoção, e é bom que não tenha mesmo, deve ser uma atividade puramente racional.

Contudo, algumas pessoas gostam de um pouco de emoção. E eu me incluo neste grupo, rs. E a emoção da bolsa de valores está no intra-diário, naquele sobe e desce frenético. Em dias de bolsa parada como o de hoje, é um tédio só. Mas poucos conseguem se dar bem operando day-trade, as estatísticas apontam algo em torno de 10% dos que tentam.

Felizmente estou neste grupo dos 10%. Em 2018 completei 4 anos operando day trade com mini-índice e mini-dólar. Já passei por todas as fases que um trader pode passar, da empolgação à depressão (veja aqui minha trajetória). Passei também por momentos de grande turbulência como cisnes negros (Joesley Day) e períodos de alta volatilidade (Eleições). E por isto já tenho o que todo trader precisa ter: disciplina. E isto só vem mesmo com tempo de tela. Não adianta fazer curso, operar no simulador, acompanhar sala de trade ao vivo ou ver milhões de vídeos de Youtube. Só mesmo enfrentando o mercado dia-a-dia você conseguirá lapidar seu emocional e desenvolver suas técnicas operacionais.

Aumento de Performance

 

2018 foi meu melhor ano até hoje no day-trade. O gráfico abaixo apresenta a evolução do meu desempenho operacional. Este gráfico mostra o valor líquido em reais que consigo obter por contrato operado. Notem que existe uma grande oscilação nos valores já que cada pregão é uma história, mas a linha de tendência é crescente.


Ainda continuo operando 1 contrato por boleta. A pergunta que mais ouço é: "por que não aumenta a mão?". Já operei uma boleta de 100 minis certa vez e a experiência não foi boa. Coração palpitou demais, rs. Mas passarei operar com boletas de 2 contratos em breve. O gráfico abaixo apresenta o número de contratos operados por pregão. Tem dias que boleto mais, por isto vocês verão mais de 1 contrato.


O gráfico a seguir é o mais revelador. Nele você poderá ver a fase inicial de grandes ganhos e grandes perdas, a fase seguinte de estagnação, e finalmente a fase de consistência e ganhos crescentes. Basicamente o trader passa por estas três fases. No início ele pensa que encontrou o pote de ouro no fim do arco-íris. Depois, de tanto levar porrada ele fica com medo do mercado (não perde mas também não ganha). E finalmente ele se encontra e começa ganhar dinheiro de verdade.


Em 2018 obtive um ganho bruto de R$ 17.723 nas operações intra-diárias com índice e dólar. O gasto com corretagens e taxas da bolsa foi de R$ 181,05. Operei em 125 pregões tendo ficado negativo em 15.

Data Ganho Taxas
01/01/18 -60,00 1,52
04/01/18 174,00 3,04
05/01/18 92,00 0,76
08/01/18 98,00 0,76
16/01/18 40,00 0,76
18/01/18 20,00 0,76
19/01/18 100,00 0,76
22/01/18 -3,00 0,76
29/01/18 116,00 0,76
31/01/18 100,00 2,44
05/02/18 154,00 1,52
06/02/18 430,00 1,52
09/02/18 100,00 0,76
15/02/18 100,00 0,76
20/02/18 -24,00 0,76
21/02/18 534,00 3,04
22/02/18 100,00 0,76
23/02/18 100,00 0,76
26/02/18 106,00 0,76
01/03/18 86,00 0,76
02/03/18 258,00 0,76
06/03/18 100,00 0,76
08/03/18 60,00 0,76
09/03/18 100,00 1,52
15/03/18 100,00 1,52
19/03/18 89,00 2,28
20/03/18 80,00 0,76
26/03/18 80,00 0,76
27/03/18 20,00 0,76
28/03/18 271,00 1,52
02/04/18 -6,00 1,52
03/04/18 0,00 0,76
04/04/18 200,00 1,52
06/04/18 108,00 1,52
09/04/18 -60,00 0,76
11/04/18 40,00 0,76
13/04/18 70,00 1,52
18/04/18 -730,00 4,56
20/04/18 106,00 0,76
23/04/18 108,00 1,52
25/04/18 60,00 0,76
26/04/18 60,00 1,52
02/05/18 37,00 1,52
03/05/18 60,00 0,76
04/05/18 100,00 0,76
10/05/18 -120,00 0,76
11/05/18 88,00 0,76
14/05/18 55,00 1,52
15/05/18 60,00 0,76
16/05/18 207,00 1,52
17/05/18 -140,00 0,76
18/05/18 488,00 9,52
21/05/18 300,00 2,28
23/05/18 178,00 3,04
24/05/18 200,00 1,52
28/05/18 -486,00 2,28
29/05/18 0,00 2,28
01/06/18 200,00 1,52
06/06/18 654,00 4,20
07/06/18 1.576,00 16,61
08/06/18 300,00 2,28
12/06/18 92,00 0,76
13/06/18 -476,00 3,04
15/06/18 -103,00 0,76
22/06/18 190,00 1,52
26/06/18 96,00 1,52
28/06/18 -4,00 2,28
29/06/18 38,00 0,76
02/07/18 100,00 0,76
03/07/18 40,00 1,52
11/07/18 100,00 0,76
19/07/18 400,00 1,52
20/07/18 200,00 3,14
24/07/18 100,00 3,14
25/07/18 83,00 0,76
27/07/18 161,00 1,52
02/08/18 21,00 0,76
13/08/18 200,00 0,18
14/08/18 200,00 0,18
15/08/18 200,00 0,18
16/08/18 121,00 0,76
17/08/18 172,00 1,52
20/08/18 100,00 0,76
21/08/18 200,00 0,76
22/08/18 400,00 0,76
23/08/18 24,00 1,52
24/08/18 136,00 0,76
29/08/18 5,00 0,76
31/08/18 280,00 1,52
03/09/18 100,00 0,76
04/09/18 200,00 0,18
05/09/18 100,00 0,18
06/09/18 132,00 0,18
10/09/18 20,00 0,18
11/09/18 200,00 0,18
12/09/18 294,00 1,52
13/09/18 60,00 0,76
19/09/18 323,00 2,28
20/09/18 100,00 0,76
21/09/18 100,00 1,52
24/09/18 6,00 0,76
25/09/18 444,00 2,28
26/09/18 200,00 1,52
27/09/18 20,00 1,52
01/10/18 52,00 0,76
03/10/18 447,00 0,18
08/10/18 160,00 0,18
11/10/18 471,00 0,18
29/10/18 -320,00 0,18
08/11/18 100,00 0,76
09/11/18 661,00 3,80
12/11/18 221,00 0,76
21/11/18 232,00 1,52
23/11/18 100,00 0,76
26/11/18 72,00 1,52
04/12/18 374,00 1,52
06/12/18 88,00 0,76
07/12/18 160,00 0,76
11/12/18 1.000,00 3,80
14/12/18 160,00 0,76
17/12/18 200,00 0,76
19/12/18 200,00 0,76
20/12/18 424,00 2,28
21/12/18 120,00 0,76
26/12/18 192,00 2,28

 Bons trades a todos!

14 comentários:

  1. Legal UO,

    Parabéns pela consistência, poucos conseguem chegar nesse nível, posso te perguntar qual a sua estrategia para entrar e sair da operação?

    Ja operei day trade a muito tempo atras e não cheguei nem perto de ter consistencia..rs

    Hoje só para longo prazo, e também não tenho tempo para acompanhar o mercado durante o horário comercial.

    abs!

    ResponderExcluir
    Respostas
    1. Bom dia, sou Josef Lewis. Um credor respeitável, legítimo e credenciado. Oferecemos empréstimos de todos os tipos de uma forma muito rápida e fácil, Empréstimo Pessoal, Empréstimo Automóvel, Empréstimo à Habitação, Empréstimo de Estudante, Empréstimo Comercial, Empréstimo do Inventor, Consolidação da Dívida. etc

      Seja aprovado para uma empresa ou empréstimos pessoais hoje e receba fundos na mesma semana da inscrição. Esses empréstimos pessoais podem ser aprovados independentemente do seu crédito e há muitos clientes satisfeitos para fazer o backup dessa reivindicação. Mas você não receberá apenas o empréstimo pessoal de que precisa; você terá o mais barato. Esta é a nossa promessa: Garantimos a menor taxa para todos os empréstimos com benefícios colaterais gratuitos.

      Nós nos esforçamos para deixar uma impressão positiva duradoura, excedendo as expectativas dos meus clientes em tudo o que faço. Nosso objetivo é tratá-lo com dignidade e respeito, oferecendo o serviço da mais alta qualidade em tempo hábil. Nenhum número de segurança social necessário e nenhuma verificação de crédito exigida, 100% garantida. Por favor, responda imediatamente usando os detalhes abaixo se estiver interessado em um empréstimo e esteja livre de golpes.

      Email: progresiveloan@yahoo.com
      Chamada / WhatsApp: +16626183756
      Website: https://progresivefunding.wordpress.com


      Excluir
  2. Que beleza hein Uó! Parabéns!

    Realmente só praticando para conseguir esses resultados!

    ResponderExcluir
  3. Saudações Uó!

    Muito bom Uó! Gostei dos seus resultados!
    Continue assim!
    Já pensou em fazer Swing Trade com os mini contratos?
    Acho que pode trazer bons resultados e menos stress.
    Que tal?

    =)
    Forte abraço, Fernando do Sou Poupador.

    ResponderExcluir
  4. Fala Uó. Rapaz, sou tradeq também, só que no Forex. Faço swing trading e gosto bastante. Poderia dizer qual tua estratégia no day trading? Tipo, que critérios você usa para decidir entrar e quais usa para decidir sair. Qual o risco que você assume por operação, quantas operações abre por pregão, essas coisas. Ajudaria bastante a turma de traders da blogosfera que é discriminada pela maioria do Buy and hold

    Grande abraço e fica com Deus.

    ResponderExcluir
  5. Ainda prefiro não entrar nesse mundo de trader na bolsa. Vi um amigo perdendo 8 mil numa tacada só, deu até dó pois ele não tinha o preparo psicólogico para tal perda. Pelos gráficos Uó da pra ver que vc pegou as manhas, sucesso man

    ResponderExcluir
  6. Não entendi o Último gráfico. Pq os gastos acumulados estacionaram com o tempo? Não deveria subir a medida que foi fazendo novas operações?

    ResponderExcluir
  7. Uó, muito bom, parabéns pela consistência, disciplina e resultados com sua estratégia.
    Vou passar mais por aqui para ficar de olho e aprender um tico sobre minis.

    Att,
    https://goblinvestidor.blogspot.com/

    ResponderExcluir
  8. Que legal, Uó! Já está dando para se profissionalizar e arriscar um pouco mais no volume, hein?

    PArabéns pela diligência e resultados!

    Abração e boa semana!

    ResponderExcluir
  9. Sem querer estragar a festa mas você só está ganhando por causa da recente alta da bolsa. Até um macaco vai ganhar assim.

    ResponderExcluir
  10. Show de bola irmão, eu também não consigo ficar só no B&H, mas como não tenho tempo para day-trade faço swing, tenho vontade de operar minis só pelo fato de se ter um custo baixo ao se operar vendido,só não opero minis porque é muita alavancagem pra mim ainda.
    To começando na finansfera Uó, to de adicionando lá na minha blogroll

    https://www.batendoomercado.com/

    Abraços

    ResponderExcluir
  11. Parabéns, quanto tempo você dedica por dia para realizar seus trades?

    ResponderExcluir
  12. Boa consistência, mas mão leve demais para o seu nível de experiência, já podia estar nos 3 contratinhos. Tem gente bem pior q vc que opera o IND com sucesso.

    Olha, vi que tomou alguns loss de 730 reais até. Fez preço médio em suportes ? Percebo que muitos dos ganhos maiores também parecem ser fruto de médio pois tem mais contratos. É bom, até vir o dia q a merda do trade não volta. Eu não condeno, se tiver um stop encurtado e um suporte/Vwap, etc, bem fortes na tendência dá para tentar um médio o q é muito perigoso para iniciantes.

    Boa sorte nos 2 contratos. Mas recomendo ao menos 3 para você.

    ResponderExcluir
  13. Excelente texto!!
    Descreveu com uma precisão incrível as etapas. neste momento estou na do medo, estou inventando mil desculpas para não operar. espero conseguir chegar la também.

    ResponderExcluir